Regional Weather Roundup
Issued by NWS

Home | Current Version | Previous Version | Text Only | Print | Product List | Glossary On
Versions: 1 2 3 4 5 6 7 8 9 10 11 12 13 14 15 16 17 18 19 20 21 22 23 24 25 26 27 28 29 30 31 32 33 34 35 36 37 38 39 40 41 42 43 44 45 46 47 48 49
000
ASUS42 KKEY 081910
RWRKEY

FLORIDA REGIONAL WEATHER ROUNDUP FOR THE FLORIDA KEYS
NATIONAL WEATHER SERVICE KEY WEST FLORIDA
200 PM EST MON FEB 08 2016

...SOUTH FLORIDA AND THE KEYS...

CITY           SKY/WX    TMP DP  RH WIND       PRES   REMARKS
FORT MYERS     SUNNY     64  48  56 W12       30.04F
SW REGIONAL AP SUNNY     64  47  53 SW14      30.05F
NAPLES         MOSUNNY   63  48  58 S10       30.06F
MIAMI          MOSUNNY   64  43  46 NW10      30.06F
WEST KENDALL   MOSUNNY   64  45  49 W9        30.07F
HOMESTEAD      MOSUNNY   65  44  46 W10       30.06
MARATHON       SUNNY     65  48  54 CALM      30.09F
BOCA CHICA NAS PTSUNNY   65  50  58 S8        30.10F
KEY WEST INTL  CLOUDY    64  52  64 S6        30.09F

...INTERNATIONAL WEATHER...

CITY           SKY/WX    TMP DP  RH WIND       PRES   REMARKS
NASSAU BAHAMAS MOSUNNY   75  37  25 W6        30.05F
CANCUN MEXICO  PTSUNNY   73  59  60 NW8       30.14F
COZUMEL MEXICO MOSUNNY   72  59  64 NW12      30.15F

ADJACENT COASTAL WATERS...

STATION/POSITION TIME  SKY/WX   TEMP    WIND        PRES    WAVE
                                AIR SEA DIR/SP/G            HT/PER
                 (UTC)          (F)     (DEG/KT/KT) (MB)    (FT/S)
PULASKI SHOAL LI NOT AVBL
SAND KEY         1850            64      CALM  /  2 1019.5F
SOMBRERO KEY     NOT AVBL
LONG KEY         1900            60 65  220/  4/  4 1019.7F
MOLASSES REEF    1900            61 71  260/  3/  4 1018.8F
FOWEY ROCKS      NOT AVBL

$$



USA.gov is the U.S. government's official web portal to all federal, state and local government web resources and services.